php hit counter

Jackpot

Texas Poker Multi Jackpot System

Kini Telah hadir Jackpot SUPER ROYAL FLUSH

Kini Telah hadir Jackpot 2000 (khusus table VIP keatas).

Ikutilah global jackpot yang tersedia di system kami, dengan system jackpot terbaru dan pertama di indonesia, anda dapat membeli jackpot dengan harga 100 rupiah saja dan menangkan hadiahnya hingga puluhan juta rupiah.

Jackpot bukanlah suatu keharusan untuk dibeli, namun kami memberikan suatu fitur tambahan untuk member tercinta dari www.windewa.co.

Terdapat tiga pilihan harga jackpot yang bisa anda beli yaitu :100,500,1000 dan 2000(khusus table VIP Keatas) rupiah.

Hadiah dari Multi jackpot system www.windewa.co

  1. full house x 10 harga jackpot yang anda beli.
      (contoh:anda membeli 1000 maka:1000 X10 = 10.000)
  2. four of kind x 250 harga jackpot yang anda beli
      (contoh:anda membeli 1000 maka:1000 X250 = 250.000)
  3. Straight flush x 1200
      (contoh:anda membeli 1000 maka:1000 X1200 = 1.200.000)
  4. Royal flush x 10000 harga jackpot yang anda beli
      (contoh:anda membeli 1000 maka:1000 X10000 = 10.000.000)
  5. SUPER ROYAL FLUSH x 30000 harga jackpot yang anda beli
      (contoh:anda membeli 1000 maka:1000 X30000 = 30.000.000)

Kondisi kartu

  1. full house adalah kondisi kartu dimana kartu anda dan kartu tengah dengan total 7 kartu bisa mendapatkan nilai 5 kartu dengan kombinasi 1 tris(three of kind) dan 1 pair, contoh 3 kartu 10 dan 2 kartu 5
  2. Four of kind adalah kondisi kartu dimana kartu anda dan kartu tengah dengan total 7 kartu bisa mendapatkan nilai 5 kartu dengan kombinasi 4 kartu yang sama jumlah dan 1 kartu apapun juga contoh anda mendapatkan 4 buah kartu angka 3 dan 1 kartu apapun.
  3. Staright flush adalah kondisi kartu dimana kartu anda dan kartu tengah dengan total 7 kartu bisa mendapatkan nilai 5 kartu dengan kombinasi seri / staright dengan kembang yang sama contoh : urutan kartu dari angka 5, 6, 7, 8 , 9 10 dengan kembang yg sama misalnya as hati
  4. Royal flush adalah kondisi kartu dimana kartu anda dan kartu tengah dengan total 7 kartu bisa mendapatkan nilai 5 kartu dengan kombinasi seri / staright dengan kembang yang sama tetapi kartu tersebut haruslah dimulai dari 10. contoh 10, Queen, Jack, King dan aces dengan kembang yang sama
  5. Super Royal flush adalah kondisi kartu dimana Kedua kartu anda digabung dengan 3 kartu pertama meja haruslah royal flush. contoh kartu anda 10,Queen kembang sama dan 3 kartu pertama meja adalah Jack, King dan aces dengan kembang yang sama

Demikian adalah penjelasan dari Multi Jackpot www.windewa.co terima kasih dan selamat bermain salam hoki dari kami

Texas Poker Jackpot Winner

TOP SUPER ROYAL FLUSH
No.TanggalNamaPriceWin
118/11 21:16TTEZ98PO5BSuper Royal flush6,000,000
218/11 20:09KUCINGLISuper Royal flush6,000,000
318/11 14:42INDRY04Super Royal flush6,000,000
418/11 07:16R_BOSSuper Royal flush3,000,000
518/11 01:56CLICKTOPSuper Royal flush60,000,000
TOP ROYAL FLUSH
No.TanggalNamaPriceWin
118/11 22:25CRITPOMRoyal flush5,000,000
218/11 21:57MBEE81Royal flush2,000,000
318/11 21:43WANWIN05Royal flush1,000,000
418/11 21:37Q1SMURoyal flush1,000,000
518/11 21:28SHERA01Royal flush5,000,000
TOP STRAIGHT FLUSH
No.TanggalNamaPriceWin
118/11 22:23X3IR6PQNPRStraight Flush600,000
218/11 22:23P4J00H99Straight Flush1,200,000
318/11 22:22POLWAN00Straight Flush60,000
418/11 22:22ALIGPOTStraight Flush120,000
518/11 22:22JIKA79Straight Flush60,000
LATEST JACKPOT
No.TanggalNamaPriceWin
118/11 22:26ALFO12Full House10,000
218/11 22:26PABEN92Full House2,000
318/11 22:26RAGHDAO8Full House1,000
418/11 22:26IXTIL10Full House2,000
518/11 22:26QRVSG6KR4XFull House10,000
618/11 22:26QDW_888Full House1,000
718/11 22:26D838AAFull House1,000
818/11 22:26SORLEPFull House5,000
918/11 22:26FEBKEKEFull House5,000
1018/11 22:26CATALEY4Four Of A Kind125,000
1118/11 22:26BH9414ANFull House20,000
1218/11 22:26JOKER14SINFull House1,000
1318/11 22:26BREKELEYFull House2,000
1418/11 22:26SPIDER456Full House10,000
1518/11 22:26CNGENAM87Full House5,000
1618/11 22:26IX4FUZ3LESFull House5,000
1718/11 22:26OM_JIPENGFull House500
1818/11 22:26BORING_88Full House5,000
1918/11 22:26ANJ1NGAERFull House2,000
2018/11 22:26D3A33Full House2,000
2118/11 22:26B3NG4K01Full House2,000
2218/11 22:26SARIDIK10Full House5,000
2318/11 22:26SRIE789Full House1,000
2418/11 22:26PUSPA262Four Of A Kind125,000
2518/11 22:26RAPON88Full House2,000
2618/11 22:26TEMPIX66Full House2,000
2718/11 22:26BOHSYAEK11Full House1,000
2818/11 22:26WIIL1992Full House2,000
2918/11 22:25GOOODDFull House2,000
3018/11 22:25BE0F6644Full House2,000
3118/11 22:25H_ANO12Full House2,000
3218/11 22:25KKAWINFull House1,000
3318/11 22:25JZL6JEOJ87Full House2,000
3418/11 22:25TAZM4N14Full House2,000
3518/11 22:25WILLY899Full House10,000
3618/11 22:25CUKIL87Full House5,000
3718/11 22:25B90AE027Full House2,000
3818/11 22:25EXEL799Four Of A Kind125,000
3918/11 22:25BBG98Full House5,000
4018/11 22:25CANCAN76Full House2,000
4118/11 22:25MARQUEE17Full House1,000
4218/11 22:25BERAVO09Full House5,000
4318/11 22:25JRDREOFull House2,000
4418/11 22:25DENGDENK02Full House5,000
4518/11 22:25ALVINICE22Four Of A Kind125,000
4618/11 22:25RYAN2317Full House2,000
4718/11 22:25FAKHDIEFull House1,000
4818/11 22:25SANDRONELFull House5,000
4918/11 22:25EMOT6Full House1,000
5018/11 22:25BEHLETFull House5,000

Domino Multi Jackpot System

Ikutilah global jackpot yang tersedia di system kami, dengan system jackpot terbaru dan pertama di indonesia, anda dapat membeli jackpot dengan harga 100 rupiah saja dan menangkan hadiahnya hingga puluhan juta rupiah.

Jackpot bukanlah suatu keharusan untuk dibeli, namun kami memberikan suatu fitur tambahan untuk member tercinta dari www.windewa.co.

Terdapat tiga pilihan harga jackpot yang bisa anda beli yaitu :100,500 dan 1000 rupiah.

Hadiah dari Multi jackpot system www.windewa.co

  1. Murni Kecil x 50 harga jackpot yang anda beli.
      (contoh:anda membeli 1000 maka:1000 X 50 = 50.000)
  2. Murni Besar x 50 harga jackpot yang anda beli
      (contoh:anda membeli 1000 maka:1000 X 50 = 50.000)
  3. BALAK x 100 harga jackpot yang anda beli
      (contoh:anda membeli 1000 maka:1000 X 100 = 100.000)
  4. ENAM DEWA x 6666 harga jackpot yang anda beli
      (contoh:anda membeli 1000 maka:1000 X 6666 = 6.666.000)

Demikian adalah penjelasan dari Multi Jackpot www.windewa.co terima kasih dan selamat bermain salam hoki dari kami

Domino Jackpot Winner

TOP ENAM DEWA
No.TanggalNamaPriceWin
118/11 21:44WEWEG0MBELmurni enam3,333,000
218/11 20:42LAJUBRImurni enam6,666,000
318/11 20:38IK4N79murni enam666,600
418/11 19:46SQUAD66murni enam6,666,000
518/11 16:57DE987B07murni enam6,666,000
TOP BALAK
No.TanggalNamaPriceWin
118/11 22:25OMG12345balak50,000
218/11 22:21FNGMKVSVIBbalak100,000
318/11 22:21ANJUN22balak100,000
418/11 22:20ZHERYANbalak50,000
518/11 22:20LUGUA09balak100,000
LATEST JACKPOT
No.TanggalNamaPriceWin
118/11 22:25C52F9590murni besar50,000
218/11 22:25SNOODSmurni besar50,000
318/11 22:25OMG12345balak50,000
418/11 22:25KALONG_35lucky9950,000
518/11 22:25ACOAEmurni kecil50,000
618/11 22:24HERSHAmurni kecil25,000
718/11 22:24S3TIA05murni besar5,000
818/11 22:23COK_5murni kecil5,000
918/11 22:23GELLIS99lucky9925,000
1018/11 22:22KIRON19murni kecil25,000
1118/11 22:21FNGMKVSVIBbalak100,000
1218/11 22:21ANJUN22balak100,000
1318/11 22:20AUDYZ111murni besar25,000
1418/11 22:20DM82997murni kecil5,000
1518/11 22:20PUTRAHADILmurni kecil25,000
1618/11 22:20ZHERYANbalak50,000
1718/11 22:20LUGUA09balak100,000
1818/11 22:19SHILA17murni kecil50,000
1918/11 22:19SASYAHmurni kecil50,000
2018/11 22:19NIAAYATmurni besar50,000
2118/11 22:19JAKOKOK99murni kecil50,000
2218/11 22:19FADEL12421murni besar25,000
2318/11 22:19MBAHOO_99murni besar25,000
2418/11 22:19KFMU42MIVYmurni kecil50,000
2518/11 22:19JEPLIN99murni besar50,000
2618/11 22:18Z4EEM99murni besar50,000
2718/11 22:18Q6666Qmurni kecil50,000
2818/11 22:18IDK886121murni besar5,000
2918/11 22:18WEATERBONDmurni besar50,000
3018/11 22:16COMANDO13murni kecil5,000
3118/11 22:16LUXYHOKY99murni besar25,000
3218/11 22:16AAL76murni kecil5,000
3318/11 22:15HERUDONmurni kecil25,000
3418/11 22:15LINAImurni besar50,000
3518/11 22:14Q6666Qmurni besar50,000
3618/11 22:14AS3P2016murni besar25,000
3718/11 22:13JX85balak50,000
3818/11 22:12ANCHA10murni kecil25,000
3918/11 22:12QIQUTTmurni besar50,000
4018/11 22:12C266FV7N7Zbalak100,000
4118/11 22:11BONENG01murni besar50,000
4218/11 22:11BN4099TBmurni besar25,000
4318/11 22:11KIRON19murni kecil25,000
4418/11 22:10IDK886121lucky9910,000
4518/11 22:09MULTI88664murni kecil5,000
4618/11 22:09B3RUK99balak100,000
4718/11 22:09BOIM76murni besar50,000
4818/11 22:08YOL34murni kecil5,000
4918/11 22:08LK4DPOERBA21murni kecil25,000
5018/11 22:07KYUPEKmurni besar50,000

Ceme Multi Jackpot System

Jackpot dilihat dari gabungan kartu pemain dengan kartu bandar. Bandar harus membeli jackpot sebanyak jumlah player yang sedang duduk. Sebagai contoh bila terdapat 3 pemain duduk bermain, dan bandar memutuskan untuk membeli jackpot Rp 1.000, maka pada periode tersebut bandar akan membeli jackpot sebanyak 3xRp1.000 = Rp3.000.

Jackpot bukanlah suatu keharusan untuk dibeli, namun kami memberikan suatu fitur tambahan untuk member tercinta dari www.windewa.co.

Terdapat tiga pilihan harga jackpot yang bisa anda beli yaitu :100,500 dan 1000 rupiah.

Hadiah dari Multi jackpot system www.windewa.co

  1. Murni Kecil x 50 harga jackpot yang anda beli.
      (contoh:anda membeli 1000 maka:1000 X 50 = 50.000)
  2. Murni Besar x 50 harga jackpot yang anda beli
      (contoh:anda membeli 1000 maka:1000 X 50 = 50.000)
  3. BALAK x 200 harga jackpot yang anda beli
      (contoh:anda membeli 1000 maka:1000 X 200 = 200.000)
  4. ENAM DEWA x 6666 harga jackpot yang anda beli
      (contoh:anda membeli 1000 maka:1000 X 6666 = 6.666.000)

Demikian adalah penjelasan dari Multi Jackpot www.windewa.co terima kasih dan selamat bermain salam hoki dari kami

Ceme Jackpot Winner

TOP ENAM DEWA
No.TanggalNamaPriceWin
118/11 22:09SYAFI123murni enam6,666,000
218/11 21:46PAKDEE09murni enam6,666,000
318/11 21:44ANDIK878murni enam3,333,000
418/11 21:43PRAGENDAmurni enam3,333,000
518/11 21:07MUJI16murni enam6,666,000
TOP BALAK
No.TanggalNamaPriceWin
118/11 22:25J03NIbalak100,000
218/11 22:25CR111112balak200,000
318/11 22:24AGIS21balak200,000
418/11 22:24BONCEK55balak20,000
518/11 22:24FAISOVALbalak200,000
LATEST JACKPOT
No.TanggalNamaPriceWin
118/11 22:26SARAWY10murni besar50,000
218/11 22:26OPAL89murni kecil50,000
318/11 22:26REJAKTM12murni kecil25,000
418/11 22:26LB881016murni besar50,000
518/11 22:26POKERLGmurni besar50,000
618/11 22:26CILER20murni kecil50,000
718/11 22:26TIVU8TKMRDmurni kecil5,000
818/11 22:25J03NIbalak100,000
918/11 22:25GELLEEEmurni kecil50,000
1018/11 22:25P3R_QQmurni kecil5,000
1118/11 22:25LUKA7777murni kecil25,000
1218/11 22:25UGIX1988murni besar25,000
1318/11 22:25DZAKIRA88murni besar5,000
1418/11 22:25JYBAYA19murni kecil50,000
1518/11 22:25CR111112balak200,000
1618/11 22:24NARMUN22murni kecil25,000
1718/11 22:24DOVISIOSO0murni kecil50,000
1818/11 22:24Y2OHTOTXDGmurni besar50,000
1918/11 22:24SIALKOEmurni besar5,000
2018/11 22:24AGIS21balak200,000
2118/11 22:24BONCEK55balak20,000
2218/11 22:24AKAY1989murni kecil50,000
2318/11 22:24AKAY1989murni kecil50,000
2418/11 22:24FAISOVALbalak200,000
2518/11 22:24SLOWBEUHmurni kecil25,000
2618/11 22:24KICENGmurni besar50,000
2718/11 22:24POTTELE03murni kecil50,000
2818/11 22:24060589balak20,000
2918/11 22:23GUVIT88murni kecil50,000
3018/11 22:23ALDI1313murni kecil25,000
3118/11 22:23MIMINDUTmurni kecil5,000
3218/11 22:23AFIPKURNIAmurni kecil25,000
3318/11 22:23U7NNV6BK7Umurni kecil5,000
3418/11 22:23I60CU9TTK1murni kecil5,000
3518/11 22:23CHIPEKOmurni kecil50,000
3618/11 22:23SUK1M1Nmurni kecil50,000
3718/11 22:23CHIPEKOmurni kecil50,000
3818/11 22:22DOVISIOSO0balak200,000
3918/11 22:22LB881016murni besar50,000
4018/11 22:22PARTY90murni besar50,000
4118/11 22:22BINTAHOKKImurni kecil50,000
4218/11 22:22DANI312murni kecil50,000
4318/11 22:22LUCI1VERmurni kecil5,000
4418/11 22:22KUDUYGOKILbalak20,000
4518/11 22:22HAMBURGER8murni kecil25,000
4618/11 22:22HAMBURGER8murni kecil25,000
4718/11 22:22ANGELO579murni kecil25,000
4818/11 22:21JUHRONmurni besar50,000
4918/11 22:21ERWIN81murni besar25,000
5018/11 22:21SEVA123murni besar5,000